Regional Weather Roundup
Issued by NWS Sioux Falls, SD

Home | Current Version | Previous Version | Graphics & Text | Print | Product List | Glossary On
Versions: 1 2 3 4 5 6 7 8 9 10 11 12 13 14 15 16 17 18 19 20 21 22 23 24 25 26 27 28 29 30 31 32 33 34 35 36 37 38 39 40 41 42 43 44 45 46 47 48 49 50
000
ASUS43 KFSD 020902
RWRFSD

WEATHER ROUNDUP FOR SE SOUTH DAKOTA/SW MINNESOTA/NW IOWA
NATIONAL WEATHER SERVICE SIOUX FALLS SD
400 AM CDT WED SEP 02 2015

NOTE: "FAIR" INDICATES FEW OR NO CLOUDS BELOW 12,000 FEET WITH NO
SIGNIFICANT WEATHER AND OR OBSTRUCTIONS TO VISIBILITY.


SDZ038>040-050-052>070-021000-
SOUTHEAST SOUTH DAKOTA

CITY           SKY/WX    TMP DP  RH WIND       PRES   REMARKS
BROOKINGS      CLEAR     64  61  88 E10       29.87S
CHAMBERLAIN    NOT AVBL
HURON          CLEAR     69  68  96 SE10      29.79F FOG
MADISON        FOG       63  63 100 E6        29.86S VSB 1/4
MITCHELL       CLEAR     67  67 100 SE6       29.81S FOG
SIOUX FALLS    CLEAR     70  66  87 S7        29.84S
WINNER         FAIR      75  61  61 SW15      29.80R
YANKTON        CLEAR     70  64  83 SE7       29.82S
$$

MNZ071-072-080-081-089-090-097-098-021000-
SOUTHWEST MINNESOTA

CITY           SKY/WX    TMP DP  RH WIND       PRES   REMARKS
FAIRMONT       CLOUDY    73  64  73 S7        29.91R
JACKSON        CLEAR     70  68  94 NE6       29.92R FOG
LUVERNE        CLEAR     68  64  88 CALM      29.87R FOG
MARSHALL       PTCLDY    64  57  77 SE12      29.88F
MONTEVIDEO     MOCLDY    66  64  94 S8        29.88S
PIPESTONE      CLEAR     64  63  94 SE6       29.88S FOG
REDWOOD FALLS  CLOUDY    67  64  90 SE9       29.88F
TRACY          PTCLDY    67  65  94 SE8       29.89S
WINDOM         PTCLDY    68  64  88 E10       29.91S
WORTHINGTON    CLEAR     68  64  88 E6        29.90R
$$

IAZ001>003-012>014-020>022-031-032-NEZ013-014-SDZ071-021000-
NORTHWEST IOWA

CITY           SKY/WX    TMP DP  RH WIND       PRES   REMARKS
ESTHERVILLE    CLEAR     70  68  93 S10       29.90S
SIOUX CITY     CLEAR     71  65  81 SE10      29.86R
SPENCER        CLEAR     71  66  84 S7        29.89S HAZE
$$

ABBREVIATIONS USED IN REMARKS
   TC - TEMPERATURE IN CELSIUS
  WCI - WIND CHILL INDEX
   HX - HEAT INDEX
  VSB - VISIBILITY




USA.gov is the U.S. government's official web portal to all federal, state and local government web resources and services.